Regional & State Weather Roundups


419 
ASUS41 KGYX 150610
RWRGYX
WEATHER ROUNDUP FOR MAINE AND NEW HAMPSHIRE
NATIONAL WEATHER SERVICE GRAY ME
100 AM EST FRI DEC 15 2017
MEZ002-005-006-010-012-015-018-020-021-024-026-027-029-150700-
MAINE
  
CITY           SKY/WX    TMP DP  RH WIND       PRES   REMARKS
PORTLAND       CLEAR     14  -1  51 VRB6      29.94R                  
6HR MIN TEMP:  14; 6HR MAX TEMP:  19;                                
SANFORD        CLEAR      9  -3  58 SW7       29.95R                  
BAR HARBOR     CLEAR     12   0  58 W10G17    29.87R WCI  -1          
WISCASSET      CLEAR      6   1  80 CALM      29.93R                  
6HR MIN TEMP:   5; 6HR MAX TEMP:  17;                                
ROCKLAND       CLEAR     13  -2  51 W13       29.90R WCI  -2          
FRYEBURG       CLEAR     13  -5  44 W16G24    29.88R WCI  -3          
6HR MIN TEMP:  12; 6HR MAX TEMP:  16;                                
LEWISTONAUBURN CLEAR     -6 -11  79 CALM      29.91R                  
AUGUSTA        CLEAR     10  -5  50 W9        29.89R                  
6HR MIN TEMP:   9; 6HR MAX TEMP:  15;                                
WATERVILLE     CLEAR      9  -4  55 W10G17    29.84R WCI  -5          
BANGOR         CLEAR      7  -1  70 W3        29.86R                  
6HR MIN TEMP:   4; 6HR MAX TEMP:  12;                                
GREENVILLE       N/A      2  -6  69 W12G25    29.67R WCI -15          
6HR MIN TEMP:   1; 6HR MAX TEMP:   3;                                
MILLINOCKET    CLEAR      6  -4  63 W10G24    29.78R WCI  -9          
6HR MIN TEMP:   5; 6HR MAX TEMP:   7;                                
HOULTON        CLOUDY     5  -4  66 SW8       29.69R                  
6HR MIN TEMP:   4; 6HR MAX TEMP:   7;                                
PRESQUE ISLE   CLOUDY     4  -4  69 W15G22    29.63R WCI -14          
6HR MIN TEMP:   4; 6HR MAX TEMP:   5;                                
FRENCHVILLE    CLEAR      1  -5  75 W24G31    29.52R WCI -22          
6HR MIN TEMP:   1; 6HR MAX TEMP:   3; 6HR PCP: TRACE;                
CARIBOU        CLEAR      4  -5  66 W18       29.58R WCI -16          
6HR MIN TEMP:   4; 6HR MAX TEMP:   5;                                
$$
NHZ002-005-008-009-011-012-014-150700-
NEW HAMPSHIRE
  
CITY           SKY/WX    TMP DP  RH WIND       PRES   REMARKS
PORTSMOUTH     CLEAR     15   1  53 W7        29.96R                  
ROCHESTER      CLEAR     13  -1  54 VRB6      29.94R                  
6HR MIN TEMP:  11; 6HR MAX TEMP:  18;                                
NASHUA         CLEAR      7  -2  66 SW3       29.99R                  
MANCHESTER     PTCLDY    16   2  54 W6        29.96R                  
6HR MIN TEMP:  15; 6HR MAX TEMP:  20;                                
CONCORD        CLEAR     13   1  59 W5        29.96R                  
6HR MIN TEMP:   5; 6HR MAX TEMP:  19;                                
LACONIA        CLEAR      8  -2  63 CALM      29.94R                  
PLYMOUTH       FAIR       8  -3  60 W6        29.95R                  
BERLIN         CLEAR     -6 -11  79 CALM      29.85S                  
6HR MIN TEMP:  -7; 6HR MAX TEMP:   6;                                
WHITEFIELD     CLEAR    -12 -16  82 CALM      29.89F                  
6HR MIN TEMP: -13; 6HR MAX TEMP:  -3;                                
JAFFREY        CLEAR     12   4  70 W6        29.91S                  
6HR MIN TEMP:   8; 6HR MAX TEMP:  15;                                
KEENE          CLEAR      1  -3  83 CALM      29.98S                  
LEBANON        CLEAR     -4  -7  87 CALM      29.96R                  
6HR MIN TEMP:  -5; 6HR MAX TEMP:  14;                                
MT WASHINGTON  BLWGSNOW -15 -15 100 W72         N/A  VSB 1/16WCI -57  
6HR MIN TEMP: -18; 6HR MAX TEMP: -14;                                
$$
VTZ005-007-008-150700-
VERMONT
  
CITY           SKY/WX    TMP DP  RH WIND       PRES   REMARKS
ST JOHNSBURY     N/A     -6 -10  83 MISG      29.94R                  
MONTPELIER     CLEAR     -3  -6  87 CALM      29.94R                  
BURLINGTON     CLEAR      4  -2  76 CALM      29.99S                  
$$
MAZ007-012-024-CTZ003-RIZ002-NYZ038-NYZ072-150700-
SOUTHERN NEW ENGLAND AND NY
  
CITY           SKY/WX    TMP DP  RH WIND       PRES   REMARKS
BOSTON         PTCLDY    19   6  57 W14       30.01R WCI   6          
WORCESTER      CLEAR     12   2  64 W8        29.93R                  
NANTUCKET      CLEAR     21  12  68 W10       30.02R WCI  10          
PROVIDENCE     CLEAR     17   5  59 W7        30.02F                  
HARTFORD       PTCLDY    17   5  59 W5        30.03F                  
ALBANY         MOCLDY    11   4  73 CALM      30.06S                  
NEW YORK CITY  PTCLDY    24   7  48 NW12      30.10R WCI  13          
$$
ANZ081-ANZ082-ANZ150-NHZ014-MEZ023>029-150700-
COASTAL MARINE OBSERVATIONS
  
STATION/POSITION TIME  TEMP    WIND        PRES    WAVE
                       AIR SEA DIR/SP/G            HT/PER
                 (UTC) (F)     (DEG/KT/KT) (MB)    (FT/S)
MOUNT DESERT ROC 0600   23     270/ 28/ 34 1011.0R
MATINICUS ROCK   0500   21     280/ 24/ 28 1011.0R
ISLE OF SHOALS   0500   19     260/ 20/ 24 1014.0R
JEFFREYS LEDGE   0506      48                N/A     6/ 5
GEORGES BANK BUO 0450   37 50              1012.4   10/10
$$
.............KEY..............
   WCI - WIND CHILL
   TC  - TEMPERATURE IN CELSIUS
   VSB - VISIBILITY IN MILES
   HX  - HEAT INDEX
   FAIR- INDICATES FEW OR NO CLOUDS BELOW 12,000 FT, WITH NO 
         SIGNIFICANT WEATHER AND/OR OBSTRUCTIONS TO VISIBILITY.